Simultaneous Nadir Overpasses (SNOs) Predictions

Prediction of SNOs between TERRA and METOP-C Satellite Orbit:

Table of predicted SNOs for the next 14.0 days since TLE Epoch: 4/2/2022
Index Date (TERRA) Time (TERRA) Lat,Lon (TERRA) SZA (TERRA ) Date (METOP-C) Time (METOP-C) Lat,Lon (METOP-C) SZA (METOP-C ) Distance(km) Time Diff (sec)
1 04/03/2022 11:53:16 81.19, 43.67 77.96 04/03/2022 11:52:58 81.20, 43.69 77.96 0.77 18
2 04/03/2022 12:42:42 -81.21,-148.42 102.02 04/03/2022 12:43:37 -81.21,-148.36 101.98 1.07 55
3 04/06/2022 07:27:26 81.20, 110.23 76.93 04/06/2022 07:27:19 81.20, 110.17 76.92 0.93 7
4 04/06/2022 08:16:52 -81.22, -81.83 103.04 04/06/2022 08:17:58 -81.21, -81.92 103.02 1.48 66
5 04/09/2022 02:12:12 -81.19, 8.82 104.12 04/09/2022 02:11:01 -81.19, 8.83 104.15 0.21 71
6 04/09/2022 03:01:37 81.21, 176.86 75.93 04/09/2022 03:01:40 81.21, 176.97 75.94 1.90 3
7 04/11/2022 21:46:24 -81.18, 75.17 105.15 04/11/2022 21:45:23 -81.18, 75.15 105.18 0.49 61
8 04/11/2022 22:35:49 81.21,-116.80 74.90 04/11/2022 22:36:02 81.21,-116.68 74.92 2.10 13
9 04/14/2022 17:20:35 -81.18, 141.60 106.15 04/14/2022 17:19:44 -81.18, 141.41 106.19 3.26 51



Historial Predications of SNOs between TERRA and METOP-C
